This demonstration page uses our WeatherBlox Daily Observations layout. Learn more.

Left ArrowRight Arrow

Hourly Observations for November 30, 2016

Temp ( °F °C ) Dew Point ( °F °C ) Humidity (%) Winds ( mph kmh ) Pressure ( in mb ) Visibility ( mi km ) Precip ( " mm )
12:15 am 00:15 Clear 28 -2.5 19 -7 72 72 WNW 10 17 29.91 1013 10 16 N/A
12:35 am 00:35 Clear 28 -2.5 19 -7.1 71 71 WNW 12 19 29.91 1013 10 16 N/A
12:55 am 00:55 Clear 28 -2.5 19 -7 72 72 WNW 13 20 29.91 1013 10 16 N/A
1:15 am 01:15 Clear 28 -2.4 20 -6.7 73 73 WNW 8 13 29.91 1013 10 16 N/A
1:35 am 01:35 Clear 28 -2.5 20 -6.8 73 73 WNW 9 15 29.91 1013 10 16 N/A
1:55 am 01:55 Clear 27 -2.7 20 -6.8 74 74 WNW 8 13 29.91 1013 10 16 N/A
2:15 am 02:15 Clear 27 -2.7 20 -6.5 75 75 W 9 15 29.91 1013 10 16 N/A
2:35 am 02:35 Partly Cloudy 27 -2.6 21 -6.2 77 77 WNW 10 17 29.91 1013 10 16 N/A
2:55 am 02:55 Clear 29 -1.8 21 -6 73 73 WNW 13 20 29.88 1012 10 16 N/A
3:15 am 03:15 Clear 28 -2 21 -6.2 73 73 WNW 12 19 29.88 1012 10 16 N/A
3:35 am 03:35 Clear 28 -2.4 21 -6.3 75 75 WNW 13 20 29.91 1013 10 16 N/A
3:55 am 03:55 Clear 28 -2.5 21 -6.3 75 75 NW 13 20 29.91 1013 10 16 N/A
4:15 am 04:15 Clear 28 -2.3 21 -6.1 75 75 NW 14 22 29.88 1012 10 16 N/A
4:35 am 04:35 Partly Cloudy 28 -2 21 -6 74 74 NW 15 24 29.88 1012 10 16 N/A
4:55 am 04:55 Mostly Cloudy 28 -2 21 -6 74 74 NW 13 20 29.88 1012 10 16 N/A
5:15 am 05:15 Partly Cloudy 27 -2.6 21 -6.2 77 77 NW 12 19 29.91 1013 10 16 N/A
5:35 am 05:35 Clear 27 -2.6 21 -6.1 77 77 NW 10 17 29.91 1013 10 16 N/A
5:55 am 05:55 Clear 28 -2.4 21 -5.9 77 77 NW 13 20 29.91 1013 10 16 N/A
6:15 am 06:15 Partly Cloudy 28 -2.3 22 -5.8 77 77 NW 13 20 29.88 1012 10 16 N/A
6:35 am 06:35 Partly Cloudy 29 -1.8 21 -6 73 73 NW 15 24 29.88 1012 10 16 N/A
6:55 am 06:55 Clear 27 -2.6 21 -6 78 78 NW 12 19 29.91 1013 10 16 N/A
7:15 am 07:15 Clear 27 -2.6 22 -5.7 80 80 NW 12 19 29.91 1013 10 16 N/A
7:35 am 07:35 Clear 28 -2.5 22 -5.6 80 80 NW 12 19 29.91 1013 10 16 N/A
7:55 am 07:55 Mostly Cloudy 28 -2.1 22 -5.5 78 78 WNW 13 20 29.88 1012 10 16 N/A
8:15 am 08:15 Partly Cloudy 28 -2.1 22 -5.5 78 78 NW 10 17 29.88 1012 10 16 N/A
8:35 am 08:35 Sunny 29 -1.6 22 -5.5 75 75 NW 13 20 29.88 1012 10 16 N/A
8:55 am 08:55 Sunny 30 -1.2 23 -5.1 75 75 NW 16 26 29.88 1012 10 16 N/A
9:15 am 09:15 Sunny 31 -0.8 23 -5 74 74 NW 16 26 29.88 1012 10 16 N/A
9:35 am 09:35 Partly Cloudy 31 -0.7 23 -5.1 72 72 NW 17 28 29.91 1013 10 16 N/A
9:50 am 09:50 Partly Cloudy 31 -0.6 22 -5.5 70 70 NW 17 28 29.91 1013 10 16 N/A
10:15 am 10:15 Partly Cloudy 32 -0.1 22 -5.5 67 67 NW 20 31 29.91 1013 10 16 N/A
10:35 am 10:35 Partly Cloudy 32 0.1 22 -5.4 67 67 NW 22 35 29.91 1013 10 16 N/A
10:55 am 10:55 Mostly Cloudy 32 0.2 23 -5.2 67 67 NW 18 30 29.91 1013 10 16 N/A
11:15 am 11:15 Mostly Cloudy 34 1.3 23 -5 63 63 NW 23 37 29.88 1012 10 16 N/A
11:35 am 11:35 Mostly Cloudy 34 1.1 22 -5.5 62 62 NW 18 30 29.88 1012 10 16 N/A
11:55 am 11:55 Cloudy 34 1.1 22 -5.4 62 62 NW 23 37 29.88 1012 10 16 N/A
12:15 pm 12:15 Mostly Cloudy 35 1.5 20 -6.5 56 56 NW 25 41 29.88 1012 10 16 N/A
12:35 pm 12:35 Cloudy 35 1.5 21 -6 58 58 NW 22 35 29.88 1012 10 16 N/A
12:55 pm 12:55 Mostly Cloudy 35 1.9 21 -6.2 55 55 NW 23 37 29.88 1012 10 16 N/A
1:15 pm 13:15 Mostly Cloudy 35 1.6 21 -6 57 57 NW 15 24 29.88 1012 10 16 N/A
1:35 pm 13:35 Cloudy 35 1.4 22 -5.6 60 60 NW 20 31 29.88 1012 10 16 N/A
1:55 pm 13:55 Cloudy 36 2 23 -5.2 59 59 NW 18 30 29.88 1012 10 16 N/A
2:15 pm 14:15 Mostly Cloudy 35 1.5 22 -5.7 59 59 NW 23 37 29.88 1012 10 16 N/A
2:35 pm 14:35 Partly Cloudy 35 1.5 22 -5.7 59 59 NW 20 31 29.88 1012 10 16 N/A
2:55 pm 14:55 Cloudy 34 1.1 22 -5.5 62 62 NW 22 35 29.88 1012 10 16 N/A
3:15 pm 15:15 Partly Cloudy 34 1 23 -5.2 64 64 NW 20 31 29.94 1014 10 16 N/A
3:35 pm 15:35 Sunny 33 0.6 22 -5.4 65 65 NW 18 30 29.94 1014 10 16 N/A
3:55 pm 15:55 Sunny 32 0.2 22 -5.4 66 66 NW 16 26 29.94 1014 10 16 N/A
4:15 pm 16:15 Sunny 32 undefined 22 -5.4 67 67 NW 13 20 29.94 1014 10 16 N/A
4:35 pm 16:35 Sunny 31 -0.4 22 -5.5 69 69 NW 9 15 29.94 1014 10 16 N/A
4:55 pm 16:55 Sunny 31 -0.6 22 -5.3 71 71 WNW 8 13 29.94 1014 10 16 N/A
5:15 pm 17:15 Clear 31 -0.6 22 -5.3 71 71 WNW 6 9 29.97 1015 10 16 N/A
5:35 pm 17:35 Clear 31 -0.5 23 -5.2 71 71 WNW 6 9 29.97 1015 10 16 N/A
6:15 pm 18:15 Clear 28 -2 22 -5.6 77 77 N 5 7 30.00 1016 10 16 N/A
6:35 pm 18:35 Clear 27 -2.9 21 -6.1 79 79 W 6 9 30.00 1016 10 16 N/A
6:55 pm 18:55 Clear 28 -2.3 22 -5.4 80 80 NNW 7 11 30.00 1016 10 16 N/A
7:15 pm 19:15 Clear 28 -2.1 22 -5.8 76 76 NW 3 6 30.03 1017 10 16 N/A
7:35 pm 19:35 Partly Cloudy 26 -3.5 20 -6.4 81 81 NW 5 7 30.03 1017 10 16 N/A
7:55 pm 19:55 Partly Cloudy 25 -4 20 -6.7 82 82 WNW 7 11 30.03 1017 10 16 N/A
8:15 pm 20:15 Partly Cloudy 27 -2.6 21 -6.2 77 77 NNW 8 13 30.03 1017 10 16 N/A
8:35 pm 20:35 Partly Cloudy 26 -3.1 20 -6.9 75 75 W 6 9 30.03 1017 10 16 N/A
8:55 pm 20:55 Mostly Cloudy 27 -2.9 20 -6.5 77 77 WNW 7 11 30.03 1017 10 16 N/A
9:15 pm 21:15 Cloudy 26 -3.1 20 -6.4 78 78 W 7 11 30.06 1018 10 16 N/A
9:35 pm 21:35 Cloudy 27 -2.6 21 -6.1 77 77 W 10 17 30.06 1018 10 16 N/A
9:55 pm 21:55 Cloudy 28 -2 21 -6.3 73 73 WNW 9 15 30.06 1018 10 16 N/A
10:15 pm 22:15 Mostly Cloudy 27 -2.7 20 -6.6 75 75 W 8 13 30.06 1018 10 16 N/A
10:35 pm 22:35 Partly Cloudy 26 -3.4 19 -7 76 76 W 8 13 30.06 1018 10 16 N/A
10:55 pm 22:55 Clear 27 -2.9 20 -6.9 74 74 W 9 15 30.06 1018 10 16 N/A
11:15 pm 23:15 Clear 27 -3 19 -7 74 74 WNW 8 13 30.06 1018 10 16 N/A
11:35 pm 23:35 Clear 27 -3 20 -6.7 76 76 W 9 15 30.06 1018 10 16 N/A
11:55 pm 23:55 Clear 26 -3.6 19 -7.2 76 76 W 8 13 30.06 1018 10 16 N/A

Powered by AerisWeather